SCP
0 0 0 -0 -0 0 0 0 0 0 0 0 0 0 0 0 0 0 0 -0 -0 -0 -0 -0 -0 -0 -1 -0 -0 -1 -0 -0 -0 -0 0 0 0 0 0 0 0 0 0 0 0 0 0 0 0
0 0 -0 0 0 0 -0 0 0 0 0 0 0 0 0 0 0 0 0 0 -0 -0 -0 -0 -0 -0 -0 -1 -1 -0 -0 -0 -0 -0 -0 0 0 0 0 0 0 0 0 0 0 0 0 0 0
0 0 0 0 0 0 0 0 0 0 0 0 0 0 0 0 0 0 0 -0 -0 -0 -0 -0 -0 -0 -0 -0 -0 -0 -0 -0 -0 -0 -0 -0 -0 0 0 0 0 0 0 0 0 0 0 0 0
-0 -0 -0 0 0 0 0 0 0 0 0 0 0 0 0 0 0 0 0 0 -0 -0 -0 -0 -0 -0 -0 -0 -0 -0 -0 -0 -0 -0 -0 -0 -0 -0 0 0 0 0 0 0 0 0 0 0 0
0 0 0 0 0 0 0 0 0 0 0 0 0 0 0 0 0 0 0 0 0 0 0 -0 -0 -0 -0 -0 0 -0 0 0 -0 -0 -0 -0 -0 -0 0 0 0 0 0 0 0 0 0 0 0
0 0 0 0 0 0 0 0 0 0 0 0 0 0 0 0 0 0 0 0 0 0 0 -0 -0 -0 -0 -0 -0 0 0 0 0 0 -0 -0 -0 -0 0 0 0 0 0 0 0 0 0 0 0
0 0 0 0 0 0 0 0 0 0 0 0 0 0 0 0 0 0 0 0 0 0 0 0 0 -0 -0 -0 -0 -0 0 0 0 0 0 0 0 0 0 0 0 0 0 0 0 0 0 0 0
0 0 0 0 0 0 0 0 0 0 0 0 0 0 0 0 0 0 0 0 0 0 0 0 0 0 0 0 -0 -0 -0 0 0 0 0 0 0 0 0 0 0 0 0 0 0 0 0 0 0
0 0 0 0 0 0 0 0 0 0 0 0 0 0 0 0 0 0 0 0 0 0 0 0 0 0 0 0 0 0 0 0 0 0 0 0 0 0 0 0 0 0 0 0 0 0 0 0 0
0 0 0 0 0 0 0 0 0 0 0 0 0 0 0 0 0 0 0 0 0 0 0 0 0 0 0 0 0 0 0 0 0 0 0 0 0 0 0 0 0 0 0 0 0 0 0 0 0
0 0 0 0 0 0 0 0 0 0 0 0 0 0 0 0 0 0 0 0 0 0 0 0 0 0 0 0 0 0 0 0 0 0 0 0 0 0 0 0 0 0 0 0 0 0 0 0 0
0 0 0 0 0 0 0 0 0 0 0 0 0 0 0 0 0 0 0 0 0 0 0 0 0 0 0 0 0 0 0 0 0 0 0 0 0 0 0 0 0 0 0 0 0 0 0 0 0
0 0 0 0 0 0 0 0 0 0 0 0 0 0 0 0 0 0 0 0 0 0 0 0 0 0 0 0 0 0 0 0 0 0 0 0 0 0 0 0 0 0 0 0 0 0 0 0 0
0 0 0 0 0 0 0 0 0 0 0 0 0 0 0 0 0 0 0 0 0 0 0 0 0 0 0 0 0 0 0 0 0 0 0 0 0 0 0 0 0 0 0 0 0 0 0 0 0
0 0 0 0 0 0 0 0 0 0 0 0 0 0 -0 -0 0 0 0 0 0 0 0 0 0 0 0 0 0 0 0 0 0 0 0 0 0 0 0 0 0 0 0 0 0 0 0 0 0
0 0 0 0 0 0 0 0 0 0 0 0 0 0 0 0 0 0 0 0 0 0 0 0 0 0 0 0 0 0 0 0 0 0 0 0 0 0 0 0 0 0 0 0 0 0 0 0 0
0 0 0 0 0 0 0 0 0 0 0 0 0 0 0 0 0 0 0 0 0 0 0 0 0 0 0 0 0 0 0 0 0 0 0 0 0 0 0 0 0 0 0 0 0 0 0 0 0
0 0 0 0 0 0 0 0 0 0 0 0 0 0 0 0 0 0 0 0 0 0 0 0 0 0 0 0 0 0 0 0 0 0 0 0 0 0 0 0 0 0 0 0 0 0 0 0 0
0 0 0 0 0 0 0 0 0 0 0 0 0 0 0 0 0 0 0 0 0 0 0 0 0 0 0 0 0 0 0 0 0 0 0 0 0 0 0 0 0 0 0 0 0 0 0 0 0
0 0 0 0 0 0 0 0 0 0 0 0 0 0 0 0 0 0 0 0 0 0 0 0 0 0 0 0 0 0 0 0 0 0 0 0 0 0 0 0 0 0 0 0 0 0 0 0 0
0 0 0 0 0 0 0 0 -0 0 0 0 0 0 0 0 0 0 0 0 0 0 0 0 0 0 0 0 0 0 0 0 0 0 0 0 0 0 0 0 0 0 0 0 0 0 0 0 0
0 0 0 0 0 0 0 0 0 0 0 0 0 0 0 0 0 0 0 0 0 0 0 0 0 0 0 0 0 0 0 0 0 0 0 0 0 0 0 0 0 0 0 0 0 0 0 0 0
0 0 0 0 0 0 0 0 0 0 0 0 0 0 0 0 0 0 0 0 0 0 0 0 0 0 0 0 0 0 0 0 0 0 0 0 0 0 0 0 0 0 0 0 0 0 0 0 0
0 0 0 0 0 0 0 0 0 0 0 0 0 0 0 0 0 0 0 0 0 0 0 0 0 0 0 0 0 0 0 0 0 0 0 0 0 0 0 0 0 0 0 0 0 0 0 0 0
0 0 0 0 0 0 0 0 0 0 0 0 0 0 0 0 0 0 0 0 0 0 0 0 0 0 0 0 0 0 0 0 0 0 0 0 0 0 0 0 0 0 0 0 0 0 0 0 0
0 0 0 0 0 0 0 0 0 0 0 0 0 0 0 0 0 0 0 0 0 0 0 0 0 -0 -0 0 0 0 0 0 0 0 0 0 0 0 0 0 0 0 0 0 0 0 0 0 0
0 0 0 0 0 0 0 0 0 0 0 0 0 0 0 0 0 0 0 0 0 -0 -0 -0 -0 -0 0 0 0 0 0 0 0 0 0 0 0 0 0 0 0 0 0 0 0 0 0 0 0
0 0 0 0 0 0 0 0 0 0 0 0 0 0 0 0 0 0 0 0 -0 -0 -0 -0 0 0 0 0 0 0 0 0 0 0 0 0 0 0 0 0 0 0 0 0 0 0 0 0 0
0 0 0 0 0 0 0 0 0 0 0 0 0 0 0 0 0 0 0 -0 -0 0 0 -0 -0 -0 0 0 0 0 0 0 0 0 0 0 0 0 0 0 0 0 0 0 0 0 0 0 0
0 0 0 0 0 0 0 0 0 0 0 0 0 0 0 0 0 0 0 0 0 0 0 0 -0 0 0 0 0 0 -0 -0 0 0 0 0 0 0 0 0 0 0 0 0 0 0 0 0 0
Wind_Speed_500mb
13 10 6 8 8 10 8 3 6 11 5 3 3 2 5 6 5 6 5 6 7 10 23 40 41 40 38 37 35 31 28 25 23 19 19 20 17 17 15 14 14 12 9 3 1 5 3 3 3
9 5 6 2 8 7 9 6 7 9 6 4 3 1 3 3 6 6 3 9 11 10 23 37 41 40 38 36 35 32 29 27 24 19 19 17 17 18 17 16 14 13 9 4 6 5 4 4 4
7 4 6 7 6 5 4 6 4 5 11 5 4 5 3 4 4 2 2 5 15 16 20 34 39 39 40 38 36 34 32 30 28 30 27 17 17 19 20 21 20 19 15 8 9 9 9 9 7
3 4 3 7 5 8 6 3 9 5 4 5 1 8 3 5 3 5 6 6 15 17 20 28 41 41 40 39 38 36 35 33 31 30 27 23 24 26 27 26 25 21 17 12 13 12 11 10 9
9 1 6 2 9 5 7 13 9 2 7 8 6 6 15 9 3 4 6 4 13 18 22 26 34 43 43 42 40 39 37 35 32 31 29 29 30 31 29 28 26 24 18 16 16 12 11 9 7
7 3 7 3 9 9 5 15 5 3 7 10 6 3 3 9 8 3 7 7 9 18 20 27 30 40 45 45 44 42 40 38 36 34 32 31 32 22 22 25 25 23 20 21 16 14 10 9 7
3 6 6 5 9 12 3 7 6 4 13 6 2 1 6 11 11 9 11 11 12 18 23 28 32 36 42 47 46 45 44 41 39 35 34 33 34 26 22 25 26 24 23 22 16 14 12 11 10
6 7 6 7 4 9 9 5 3 2 8 6 2 3 6 12 15 17 20 20 18 23 26 28 34 38 42 46 49 47 45 44 43 40 40 43 41 36 26 27 28 27 25 23 19 17 16 14 12
2 7 5 7 10 11 12 10 3 7 16 27 14 28 37 44 32 27 28 26 27 29 33 35 34 39 42 47 50 49 48 47 46 46 48 49 48 41 33 27 30 29 28 24 21 21 19 18 16
7 6 11 5 2 7 20 7 16 11 28 53 48 39 18 24 40 37 39 39 36 38 40 41 40 39 42 46 51 53 53 52 52 51 52 54 51 47 40 33 34 32 30 27 26 24 23 20 18
11 10 8 22 34 30 17 31 21 14 11 50 50 50 41 46 34 43 45 46 46 40 38 41 42 43 43 46 48 53 55 56 57 59 58 57 55 53 49 44 40 37 35 32 31 28 28 26 24
6 26 33 26 31 27 13 22 24 31 51 54 56 52 52 50 55 52 51 49 52 46 40 40 41 40 46 47 49 49 51 55 59 60 59 58 58 60 55 51 44 42 39 36 36 35 36 32 29
9 11 14 29 31 41 40 28 25 53 57 44 39 40 46 38 35 38 45 38 41 45 41 39 44 46 43 49 53 52 52 52 50 57 59 56 57 59 57 56 52 47 44 41 41 40 39 36 34
10 13 24 29 50 50 22 31 13 41 41 40 29 33 30 35 41 39 40 39 41 38 38 38 39 46 47 45 51 56 56 55 52 53 56 58 60 60 57 53 56 53 49 45 45 44 42 40 39
12 10 15 38 30 13 7 7 17 38 37 24 43 50 62 55 34 31 22 28 38 38 38 37 34 38 44 45 44 52 58 59 57 54 53 57 63 62 58 56 57 56 53 51 49 48 48 47 45
9 3 7 11 7 6 4 13 18 29 35 50 58 58 42 17 13 4 4 6 5 25 38 25 24 27 37 40 40 44 51 57 55 51 50 48 50 57 60 60 57 56 57 56 53 51 52 51 50
5 6 9 17 16 5 7 12 28 29 49 57 48 35 17 12 19 19 14 5 2 1 15 25 18 12 21 33 36 37 41 47 50 45 48 48 49 52 56 57 54 55 60 62 59 57 55 55 55
9 7 8 11 12 16 14 17 17 41 47 52 42 10 24 30 33 25 16 11 4 3 9 15 26 21 14 20 28 32 35 37 40 45 44 42 48 51 50 50 52 56 61 66 65 62 60 58 57
8 9 9 10 16 8 14 13 27 52 28 42 17 44 42 42 37 38 36 30 20 11 7 11 15 17 20 19 18 26 30 30 33 36 42 43 45 43 48 51 52 57 62 64 64 64 64 63 61
5 9 13 9 6 3 12 23 30 28 18 39 47 45 40 39 42 46 46 47 50 44 34 18 9 4 7 12 12 11 17 23 23 24 29 37 35 40 44 48 50 51 58 63 65 65 68 66 65
9 10 8 15 6 10 5 13 10 11 35 47 47 41 39 43 47 49 50 53 54 55 51 43 34 22 12 6 6 9 14 14 15 21 23 24 31 37 37 39 44 49 54 61 64 64 67 69 70
10 11 14 10 6 7 6 9 13 15 13 16 32 40 39 41 44 47 49 50 52 52 49 46 42 39 33 24 18 12 7 4 8 13 16 19 17 18 28 36 43 47 50 54 59 61 65 68 73
12 7 2 4 6 4 8 3 12 17 6 9 19 39 38 38 39 41 41 41 41 41 42 41 39 38 37 32 27 22 16 9 3 13 17 14 14 17 23 28 33 40 45 50 54 59 63 68 72
8 6 8 3 6 5 14 13 8 8 14 13 23 36 36 33 32 34 35 33 34 32 32 32 32 32 31 28 28 28 23 18 11 8 8 12 9 10 11 14 19 29 36 45 49 53 59 63 69
8 8 5 6 2 11 5 0 13 8 14 27 31 39 30 26 26 26 29 30 29 29 29 27 26 25 26 25 24 25 24 22 22 21 19 17 16 17 20 21 23 25 24 27 36 48 56 61 67
9 12 8 10 6 7 11 8 8 15 45 53 46 38 27 23 22 24 26 26 25 23 22 20 21 23 24 26 28 28 27 26 24 23 25 27 26 25 24 23 26 31 36 34 31 36 43 53 62
7 8 7 9 0 2 8 3 10 15 20 35 40 31 24 17 11 15 17 16 15 15 18 19 18 19 21 23 23 25 27 29 32 33 32 30 30 29 26 26 27 28 29 32 36 40 42 44 52
4 5 4 5 4 11 9 8 8 11 20 16 19 27 17 7 3 4 7 8 11 13 13 15 17 18 20 20 22 24 25 26 26 29 35 37 38 42 43 38 35 34 34 35 36 38 39 46 49
2 3 2 6 9 8 4 10 11 16 21 19 21 18 16 16 14 12 10 8 6 5 6 12 16 20 21 23 23 24 28 31 35 35 33 38 44 48 49 51 48 45 45 42 41 42 42 45 48
9 10 10 7 8 6 3 14 11 24 32 31 26 31 28 24 22 21 13 8 3 4 8 11 18 23 26 29 30 35 39 43 45 47 49 47 48 51 54 53 55 56 56 53 50 48 44 46 51
Wind_Direction_500mb
326 320 345 6 50 65 303 310 96 41 43 93 3 29 215 252 209 210 158 199 245 195 186 190 192 196 199 200 198 198 199 198 200 201 207 205 200 200 202 212 223 238 250 241 298 347 22 52 76
354 21 23 20 85 69 291 134 118 151 166 351 318 9 320 327 85 124 153 193 234 220 197 195 196 199 201 206 206 206 206 207 209 204 191 197 211 208 216 224 233 245 249 233 256 295 302 304 274
67 37 13 99 117 153 174 36 82 52 134 109 353 274 301 116 107 285 239 201 228 229 209 201 203 203 205 208 209 210 210 211 202 203 226 223 232 236 236 239 247 255 268 271 277 288 287 279 267
55 57 257 87 235 267 125 103 91 42 89 112 80 321 227 228 253 275 309 209 229 238 227 209 208 209 210 211 212 212 214 216 216 219 228 234 238 243 245 241 246 253 259 263 272 283 285 281 271
15 316 48 351 283 267 75 87 74 38 297 178 154 283 312 225 215 0 354 279 230 236 229 222 217 216 214 215 218 218 218 221 223 222 229 239 246 250 245 237 240 245 247 253 260 264 262 257 231
345 355 42 310 296 302 74 101 79 316 292 177 187 255 288 206 191 218 355 325 255 230 234 228 225 223 223 221 220 221 223 224 227 228 236 241 251 259 235 225 229 242 250 255 253 248 236 204 190
39 72 225 286 287 335 111 91 75 344 347 37 14 94 288 217 235 249 302 314 268 246 239 234 229 227 228 227 226 224 224 226 227 229 233 239 246 259 254 226 235 244 249 250 249 242 213 204 199
347 88 304 279 293 274 173 133 152 340 287 353 301 269 248 299 289 265 277 292 266 254 253 245 238 232 230 231 228 227 226 226 225 224 231 235 243 251 255 237 238 241 240 239 232 219 212 213 213
347 57 271 259 23 315 9 17 349 299 280 292 276 275 289 293 277 283 285 283 271 254 254 256 249 241 235 232 231 230 231 226 226 228 229 237 244 252 257 257 242 240 240 240 230 219 216 219 222
123 121 236 180 126 308 315 343 324 311 313 293 294 288 284 329 272 281 287 288 282 273 257 255 254 249 239 234 230 231 232 232 229 230 234 238 244 250 256 262 253 247 243 239 230 225 227 230 233
187 195 223 297 320 326 310 314 314 316 291 280 291 296 294 303 290 284 285 283 288 291 263 258 256 252 246 239 236 234 234 233 232 233 235 238 242 248 254 258 258 249 243 240 234 230 233 234 237
198 229 243 274 292 310 279 290 292 282 274 291 289 290 290 289 292 289 285 285 290 284 287 266 263 256 252 245 242 239 237 235 234 235 235 232 238 244 248 254 255 253 249 242 235 228 233 234 233
224 249 288 291 293 284 288 279 269 282 299 312 311 299 289 289 296 294 297 285 284 276 273 280 263 264 259 249 245 245 244 240 240 239 238 233 237 249 251 253 255 253 250 246 241 236 238 238 238
309 315 300 297 282 279 260 276 231 275 312 318 318 319 324 317 315 311 316 288 281 288 270 268 270 262 262 259 248 246 246 249 245 244 248 243 242 247 256 255 257 254 251 249 245 242 241 240 240
324 327 315 273 270 232 218 284 230 272 306 309 306 309 321 329 324 314 302 268 267 259 258 271 271 264 256 262 261 249 244 246 251 251 251 252 252 247 261 261 261 254 252 250 248 244 240 240 241
313 31 314 285 26 277 117 258 275 299 300 302 297 307 332 20 22 4 255 228 3 254 243 236 267 266 256 256 260 257 248 249 255 257 256 253 251 251 260 262 259 254 253 251 250 249 246 244 243
311 240 227 322 346 142 175 236 252 283 285 283 296 326 72 73 68 54 52 53 306 214 212 203 206 262 271 259 257 255 249 248 256 259 261 259 257 258 261 264 260 257 256 255 253 252 250 248 246
220 255 295 278 302 343 303 267 267 283 281 289 296 67 81 70 52 48 44 25 356 152 156 171 188 184 219 243 249 250 250 249 248 252 252 255 262 267 265 267 265 261 258 256 254 254 253 251 247
262 232 240 251 276 336 289 300 298 285 295 303 48 99 87 73 66 66 65 61 64 79 157 144 167 178 194 211 237 239 239 244 251 253 256 256 260 251 254 267 266 266 264 262 262 259 256 252 246
259 278 277 293 274 329 302 294 271 324 62 90 90 92 94 90 76 70 69 69 70 72 77 92 116 132 218 218 207 220 223 236 245 246 254 259 259 262 265 267 268 266 265 263 261 259 259 256 247
257 229 225 227 288 291 288 296 275 50 83 84 90 97 88 80 76 72 69 66 64 64 64 66 70 73 83 138 205 228 225 221 229 240 241 251 264 266 269 264 265 270 268 265 263 261 261 259 253
249 233 221 235 81 224 77 281 286 141 104 91 102 98 93 87 83 76 70 64 60 59 62 61 60 62 66 72 78 79 104 209 243 255 255 247 253 263 269 273 273 275 273 269 268 267 262 259 256
217 52 260 209 202 14 268 151 261 117 163 141 116 101 90 85 85 79 70 63 61 59 55 54 53 55 55 49 48 54 54 52 300 259 255 261 263 267 267 267 264 263 265 266 268 267 265 263 260
124 44 309 66 111 284 224 187 270 196 182 135 111 99 92 83 70 64 63 63 58 51 48 46 42 46 45 41 44 43 44 38 33 20 327 311 308 283 266 258 273 272 265 264 264 266 268 268 268
83 77 319 0 39 227 286 240 254 22 97 133 121 108 97 87 77 64 56 52 47 40 40 39 38 43 42 38 37 34 28 19 17 17 13 359 348 331 314 305 295 282 269 266 266 262 262 265 267
178 162 162 233 222 273 321 259 341 50 91 107 110 108 100 84 64 48 38 29 27 27 30 35 38 40 35 32 31 29 27 26 19 17 10 3 356 352 346 334 315 302 298 290 270 266 267 263 262
180 182 172 117 2 268 231 260 98 91 93 106 115 113 105 92 57 30 22 18 17 18 19 24 36 50 54 50 38 24 15 9 10 9 7 7 357 352 346 340 333 331 322 308 299 288 275 269 268
153 172 74 22 210 232 266 248 207 166 141 129 123 122 137 143 96 13 346 334 339 349 5 11 13 18 24 25 19 16 9 6 2 356 353 350 345 343 341 341 339 335 329 325 318 309 298 286 277
79 253 254 152 166 199 248 260 174 149 153 143 151 170 201 209 220 239 254 276 309 316 21 28 19 10 16 24 15 357 348 343 339 339 334 331 331 329 328 328 330 331 329 327 320 316 313 305 296
195 228 182 166 241 237 187 267 139 142 149 151 195 244 234 226 212 206 217 226 251 343 360 10 7 355 356 1 358 350 345 342 338 336 330 328 323 318 316 316 316 318 319 319 319 315 312 307 306
Wind_Speed_850mb
13 10 6 8 8 10 8 3 6 11 5 3 3 2 5 6 5 6 5 6 7 10 23 40 41 40 38 37 35 31 28 25 23 19 19 20 17 17 15 14 14 12 9 3 1 5 3 3 3
9 5 6 2 8 7 9 6 7 9 6 4 3 1 3 3 6 6 3 9 11 10 23 37 41 40 38 36 35 32 29 27 24 19 19 17 17 18 17 16 14 13 9 4 6 5 4 4 4
7 4 6 7 6 5 4 6 4 5 11 5 4 5 3 4 4 2 2 5 15 16 20 34 39 39 40 38 36 34 32 30 28 30 27 17 17 19 20 21 20 19 15 8 9 9 9 9 7
3 4 3 7 5 8 6 3 9 5 4 5 1 8 3 5 3 5 6 6 15 17 20 28 41 41 40 39 38 36 35 33 31 30 27 23 24 26 27 26 25 21 17 12 13 12 11 10 9
9 1 6 2 9 5 7 13 9 2 7 8 6 6 15 9 3 4 6 4 13 18 22 26 34 43 43 42 40 39 37 35 32 31 29 29 30 31 29 28 26 24 18 16 16 12 11 9 7
7 3 7 3 9 9 5 15 5 3 7 10 6 3 3 9 8 3 7 7 9 18 20 27 30 40 45 45 44 42 40 38 36 34 32 31 32 22 22 25 25 23 20 21 16 14 10 9 7
3 6 6 5 9 12 3 7 6 4 13 6 2 1 6 11 11 9 11 11 12 18 23 28 32 36 42 47 46 45 44 41 39 35 34 33 34 26 22 25 26 24 23 22 16 14 12 11 10
6 7 6 7 4 9 9 5 3 2 8 6 2 3 6 12 15 17 20 20 18 23 26 28 34 38 42 46 49 47 45 44 43 40 40 43 41 36 26 27 28 27 25 23 19 17 16 14 12
2 7 5 7 10 11 12 10 3 7 16 27 14 28 37 44 32 27 28 26 27 29 33 35 34 39 42 47 50 49 48 47 46 46 48 49 48 41 33 27 30 29 28 24 21 21 19 18 16
7 6 11 5 2 7 20 7 16 11 28 53 48 39 18 24 40 37 39 39 36 38 40 41 40 39 42 46 51 53 53 52 52 51 52 54 51 47 40 33 34 32 30 27 26 24 23 20 18
11 10 8 22 34 30 17 31 21 14 11 50 50 50 41 46 34 43 45 46 46 40 38 41 42 43 43 46 48 53 55 56 57 59 58 57 55 53 49 44 40 37 35 32 31 28 28 26 24
6 26 33 26 31 27 13 22 24 31 51 54 56 52 52 50 55 52 51 49 52 46 40 40 41 40 46 47 49 49 51 55 59 60 59 58 58 60 55 51 44 42 39 36 36 35 36 32 29
9 11 14 29 31 41 40 28 25 53 57 44 39 40 46 38 35 38 45 38 41 45 41 39 44 46 43 49 53 52 52 52 50 57 59 56 57 59 57 56 52 47 44 41 41 40 39 36 34
10 13 24 29 50 50 22 31 13 41 41 40 29 33 30 35 41 39 40 39 41 38 38 38 39 46 47 45 51 56 56 55 52 53 56 58 60 60 57 53 56 53 49 45 45 44 42 40 39
12 10 15 38 30 13 7 7 17 38 37 24 43 50 62 55 34 31 22 28 38 38 38 37 34 38 44 45 44 52 58 59 57 54 53 57 63 62 58 56 57 56 53 51 49 48 48 47 45
9 3 7 11 7 6 4 13 18 29 35 50 58 58 42 17 13 4 4 6 5 25 38 25 24 27 37 40 40 44 51 57 55 51 50 48 50 57 60 60 57 56 57 56 53 51 52 51 50
5 6 9 17 16 5 7 12 28 29 49 57 48 35 17 12 19 19 14 5 2 1 15 25 18 12 21 33 36 37 41 47 50 45 48 48 49 52 56 57 54 55 60 62 59 57 55 55 55
9 7 8 11 12 16 14 17 17 41 47 52 42 10 24 30 33 25 16 11 4 3 9 15 26 21 14 20 28 32 35 37 40 45 44 42 48 51 50 50 52 56 61 66 65 62 60 58 57
8 9 9 10 16 8 14 13 27 52 28 42 17 44 42 42 37 38 36 30 20 11 7 11 15 17 20 19 18 26 30 30 33 36 42 43 45 43 48 51 52 57 62 64 64 64 64 63 61
5 9 13 9 6 3 12 23 30 28 18 39 47 45 40 39 42 46 46 47 50 44 34 18 9 4 7 12 12 11 17 23 23 24 29 37 35 40 44 48 50 51 58 63 65 65 68 66 65
9 10 8 15 6 10 5 13 10 11 35 47 47 41 39 43 47 49 50 53 54 55 51 43 34 22 12 6 6 9 14 14 15 21 23 24 31 37 37 39 44 49 54 61 64 64 67 69 70
10 11 14 10 6 7 6 9 13 15 13 16 32 40 39 41 44 47 49 50 52 52 49 46 42 39 33 24 18 12 7 4 8 13 16 19 17 18 28 36 43 47 50 54 59 61 65 68 73
12 7 2 4 6 4 8 3 12 17 6 9 19 39 38 38 39 41 41 41 41 41 42 41 39 38 37 32 27 22 16 9 3 13 17 14 14 17 23 28 33 40 45 50 54 59 63 68 72
8 6 8 3 6 5 14 13 8 8 14 13 23 36 36 33 32 34 35 33 34 32 32 32 32 32 31 28 28 28 23 18 11 8 8 12 9 10 11 14 19 29 36 45 49 53 59 63 69
8 8 5 6 2 11 5 0 13 8 14 27 31 39 30 26 26 26 29 30 29 29 29 27 26 25 26 25 24 25 24 22 22 21 19 17 16 17 20 21 23 25 24 27 36 48 56 61 67
9 12 8 10 6 7 11 8 8 15 45 53 46 38 27 23 22 24 26 26 25 23 22 20 21 23 24 26 28 28 27 26 24 23 25 27 26 25 24 23 26 31 36 34 31 36 43 53 62
7 8 7 9 0 2 8 3 10 15 20 35 40 31 24 17 11 15 17 16 15 15 18 19 18 19 21 23 23 25 27 29 32 33 32 30 30 29 26 26 27 28 29 32 36 40 42 44 52
4 5 4 5 4 11 9 8 8 11 20 16 19 27 17 7 3 4 7 8 11 13 13 15 17 18 20 20 22 24 25 26 26 29 35 37 38 42 43 38 35 34 34 35 36 38 39 46 49
2 3 2 6 9 8 4 10 11 16 21 19 21 18 16 16 14 12 10 8 6 5 6 12 16 20 21 23 23 24 28 31 35 35 33 38 44 48 49 51 48 45 45 42 41 42 42 45 48
9 10 10 7 8 6 3 14 11 24 32 31 26 31 28 24 22 21 13 8 3 4 8 11 18 23 26 29 30 35 39 43 45 47 49 47 48 51 54 53 55 56 56 53 50 48 44 46 51
Wind_Direction_850mb
326 320 345 6 50 65 303 310 96 41 43 93 3 29 215 252 209 210 158 199 245 195 186 190 192 196 199 200 198 198 199 198 200 201 207 205 200 200 202 212 223 238 250 241 298 347 22 52 76
354 21 23 20 85 69 291 134 118 151 166 351 318 9 320 327 85 124 153 193 234 220 197 195 196 199 201 206 206 206 206 207 209 204 191 197 211 208 216 224 233 245 249 233 256 295 302 304 274
67 37 13 99 117 153 174 36 82 52 134 109 353 274 301 116 107 285 239 201 228 229 209 201 203 203 205 208 209 210 210 211 202 203 226 223 232 236 236 239 247 255 268 271 277 288 287 279 267
55 57 257 87 235 267 125 103 91 42 89 112 80 321 227 228 253 275 309 209 229 238 227 209 208 209 210 211 212 212 214 216 216 219 228 234 238 243 245 241 246 253 259 263 272 283 285 281 271
15 316 48 351 283 267 75 87 74 38 297 178 154 283 312 225 215 0 354 279 230 236 229 222 217 216 214 215 218 218 218 221 223 222 229 239 246 250 245 237 240 245 247 253 260 264 262 257 231
345 355 42 310 296 302 74 101 79 316 292 177 187 255 288 206 191 218 355 325 255 230 234 228 225 223 223 221 220 221 223 224 227 228 236 241 251 259 235 225 229 242 250 255 253 248 236 204 190
39 72 225 286 287 335 111 91 75 344 347 37 14 94 288 217 235 249 302 314 268 246 239 234 229 227 228 227 226 224 224 226 227 229 233 239 246 259 254 226 235 244 249 250 249 242 213 204 199
347 88 304 279 293 274 173 133 152 340 287 353 301 269 248 299 289 265 277 292 266 254 253 245 238 232 230 231 228 227 226 226 225 224 231 235 243 251 255 237 238 241 240 239 232 219 212 213 213
347 57 271 259 23 315 9 17 349 299 280 292 276 275 289 293 277 283 285 283 271 254 254 256 249 241 235 232 231 230 231 226 226 228 229 237 244 252 257 257 242 240 240 240 230 219 216 219 222
123 121 236 180 126 308 315 343 324 311 313 293 294 288 284 329 272 281 287 288 282 273 257 255 254 249 239 234 230 231 232 232 229 230 234 238 244 250 256 262 253 247 243 239 230 225 227 230 233
187 195 223 297 320 326 310 314 314 316 291 280 291 296 294 303 290 284 285 283 288 291 263 258 256 252 246 239 236 234 234 233 232 233 235 238 242 248 254 258 258 249 243 240 234 230 233 234 237
198 229 243 274 292 310 279 290 292 282 274 291 289 290 290 289 292 289 285 285 290 284 287 266 263 256 252 245 242 239 237 235 234 235 235 232 238 244 248 254 255 253 249 242 235 228 233 234 233
224 249 288 291 293 284 288 279 269 282 299 312 311 299 289 289 296 294 297 285 284 276 273 280 263 264 259 249 245 245 244 240 240 239 238 233 237 249 251 253 255 253 250 246 241 236 238 238 238
309 315 300 297 282 279 260 276 231 275 312 318 318 319 324 317 315 311 316 288 281 288 270 268 270 262 262 259 248 246 246 249 245 244 248 243 242 247 256 255 257 254 251 249 245 242 241 240 240
324 327 315 273 270 232 218 284 230 272 306 309 306 309 321 329 324 314 302 268 267 259 258 271 271 264 256 262 261 249 244 246 251 251 251 252 252 247 261 261 261 254 252 250 248 244 240 240 241
313 31 314 285 26 277 117 258 275 299 300 302 297 307 332 20 22 4 255 228 3 254 243 236 267 266 256 256 260 257 248 249 255 257 256 253 251 251 260 262 259 254 253 251 250 249 246 244 243
311 240 227 322 346 142 175 236 252 283 285 283 296 326 72 73 68 54 52 53 306 214 212 203 206 262 271 259 257 255 249 248 256 259 261 259 257 258 261 264 260 257 256 255 253 252 250 248 246
220 255 295 278 302 343 303 267 267 283 281 289 296 67 81 70 52 48 44 25 356 152 156 171 188 184 219 243 249 250 250 249 248 252 252 255 262 267 265 267 265 261 258 256 254 254 253 251 247
262 232 240 251 276 336 289 300 298 285 295 303 48 99 87 73 66 66 65 61 64 79 157 144 167 178 194 211 237 239 239 244 251 253 256 256 260 251 254 267 266 266 264 262 262 259 256 252 246
259 278 277 293 274 329 302 294 271 324 62 90 90 92 94 90 76 70 69 69 70 72 77 92 116 132 218 218 207 220 223 236 245 246 254 259 259 262 265 267 268 266 265 263 261 259 259 256 247
257 229 225 227 288 291 288 296 275 50 83 84 90 97 88 80 76 72 69 66 64 64 64 66 70 73 83 138 205 228 225 221 229 240 241 251 264 266 269 264 265 270 268 265 263 261 261 259 253
249 233 221 235 81 224 77 281 286 141 104 91 102 98 93 87 83 76 70 64 60 59 62 61 60 62 66 72 78 79 104 209 243 255 255 247 253 263 269 273 273 275 273 269 268 267 262 259 256
217 52 260 209 202 14 268 151 261 117 163 141 116 101 90 85 85 79 70 63 61 59 55 54 53 55 55 49 48 54 54 52 300 259 255 261 263 267 267 267 264 263 265 266 268 267 265 263 260
124 44 309 66 111 284 224 187 270 196 182 135 111 99 92 83 70 64 63 63 58 51 48 46 42 46 45 41 44 43 44 38 33 20 327 311 308 283 266 258 273 272 265 264 264 266 268 268 268
83 77 319 0 39 227 286 240 254 22 97 133 121 108 97 87 77 64 56 52 47 40 40 39 38 43 42 38 37 34 28 19 17 17 13 359 348 331 314 305 295 282 269 266 266 262 262 265 267
178 162 162 233 222 273 321 259 341 50 91 107 110 108 100 84 64 48 38 29 27 27 30 35 38 40 35 32 31 29 27 26 19 17 10 3 356 352 346 334 315 302 298 290 270 266 267 263 262
180 182 172 117 2 268 231 260 98 91 93 106 115 113 105 92 57 30 22 18 17 18 19 24 36 50 54 50 38 24 15 9 10 9 7 7 357 352 346 340 333 331 322 308 299 288 275 269 268
153 172 74 22 210 232 266 248 207 166 141 129 123 122 137 143 96 13 346 334 339 349 5 11 13 18 24 25 19 16 9 6 2 356 353 350 345 343 341 341 339 335 329 325 318 309 298 286 277
79 253 254 152 166 199 248 260 174 149 153 143 151 170 201 209 220 239 254 276 309 316 21 28 19 10 16 24 15 357 348 343 339 339 334 331 331 329 328 328 330 331 329 327 320 316 313 305 296
195 228 182 166 241 237 187 267 139 142 149 151 195 244 234 226 212 206 217 226 251 343 360 10 7 355 356 1 358 350 345 342 338 336 330 328 323 318 316 316 316 318 319 319 319 315 312 307 306